Location: Shenandoah County Park
(38.9356°N, 78.4524°W)
Time: 06:17:50
(UTC-04:00)

Transit 2A - Pass Details

Date: 19 June 2024
Orbit: 591 x 960 km, 66.7° (Epoch: 23 July)

Event Time Altitude Azimuth Distance (km) Brightness Sun altitude
Rises 01:40:34 0° 334° (NNW) 3,534 10.3 -27.4°
Reaches altitude 10° 01:43:06 10° 339° (NNW) 2,627 9.5 -27.3°
Maximum altitude 01:49:12 58° 58° (ENE) 1,107 6.9 -27.1°
Enters shadow 01:51:30 38° 117° (ESE) 1,434 7.2 -27.1°
